When you browse on this site, cookies collect data to enhance your experience and personalize the content and advertising you see.
Visit our Privacy Policy to learn more. By continuing to use the site, you agree to this use of cookies and data.
  • In Österreich
  • Länderverzeichnis
  • Für 7 Tage
  • Wassertemperatur
  • Wetterkarte
  • News
  • Widgets
  • user-avatar
    Anmelden

    Stündliche Wetter Buykovichi

    Heute, 3 Juni, Mittwoch

    Zeit Temperatur Niederschläge Wind Luftdruck Luftfeuchtigkeit
    00:00 +7°C° 0 mm 3 m/S 741 mmHg 96%
    01:00 +7°C° 0 mm 3 m/S 741 mmHg 97%
    02:00 +7°C° 0 mm 3 m/S 742 mmHg 98%
    03:00 +7°C° 0 mm 3 m/S 741 mmHg 98%
    04:00 +7°C° 0 mm 3 m/S 741 mmHg 97%
    05:00 +5°C° 0 mm 3 m/S 741 mmHg 97%
    06:00 +7°C° 0.1 mm 3 m/S 741 mmHg 96%
    07:00 +8°C° 0.1 mm 3 m/S 741 mmHg 95%
    08:00 +9°C° 0 mm 3 m/S 741 mmHg 94%
    09:00 +9°C° 0.5 mm 3 m/S 741 mmHg 91%
    10:00 +10°C° 0.5 mm 4 m/S 741 mmHg 88%
    11:00 +11°C° 0.5 mm 4 m/S 741 mmHg 85%
    12:00 +12°C° 0.5 mm 4 m/S 741 mmHg 81%
    13:00 +13°C° 0.5 mm 4 m/S 741 mmHg 77%
    14:00 +13°C° 0 mm 4 m/S 741 mmHg 76%
    15:00 +13°C° 0.5 mm 3 m/S 741 mmHg 77%
    16:00 +13°C° 0.5 mm 3 m/S 741 mmHg 78%
    17:00 +13°C° 0.5 mm 3 m/S 740 mmHg 79%
    18:00 +12°C° 0.2 mm 3 m/S 740 mmHg 83%
    19:00 +12°C° 0.2 mm 2 m/S 740 mmHg 87%
    20:00 +10°C° 0.2 mm 2 m/S 740 mmHg 91%
    21:00 +9°C° 0 mm 2 m/S 740 mmHg 93%
    22:00 +8°C° 0 mm 2 m/S 740 mmHg 94%
    23:00 +7°C° 0 mm 2 m/S 740 mmHg 96%

    Morgen, 4 Juni, Donnerstag

    Zeit Temperatur Niederschläge Wind Luftdruck Luftfeuchtigkeit
    00:00 +7°C° 0 mm 2 m/S 740 mmHg 96%
    01:00 +6°C° 0 mm 2 m/S 740 mmHg 97%
    02:00 +6°C° 0 mm 2 m/S 740 mmHg 97%
    03:00 +6°C° 0 mm 2 m/S 740 mmHg 98%
    04:00 +6°C° 0 mm 2 m/S 740 mmHg 98%
    05:00 +6°C° 0 mm 2 m/S 740 mmHg 98%
    06:00 +8°C° 0 mm 2 m/S 740 mmHg 94%
    07:00 +10°C° 0 mm 2 m/S 740 mmHg 90%
    08:00 +11°C° 0 mm 3 m/S 740 mmHg 86%
    09:00 +13°C° 0.5 mm 3 m/S 740 mmHg 83%
    10:00 +14°C° 0.5 mm 3 m/S 740 mmHg 80%
    11:00 +16°C° 0.5 mm 3 m/S 740 mmHg 77%
    12:00 +15°C° 0.9 mm 4 m/S 740 mmHg 76%
    13:00 +15°C° 0.9 mm 4 m/S 740 mmHg 75%
    14:00 +17°C° 0.9 mm 4 m/S 740 mmHg 74%
    15:00 +17°C° 0.4 mm 4 m/S 740 mmHg 74%
    16:00 +17°C° 0.4 mm 3 m/S 739 mmHg 74%
    17:00 +17°C° 0.4 mm 3 m/S 739 mmHg 75%
    18:00 +14°C° 0.2 mm 3 m/S 739 mmHg 79%
    19:00 +14°C° 0.2 mm 2 m/S 739 mmHg 84%
    20:00 +13°C° 0.2 mm 2 m/S 739 mmHg 88%
    21:00 +12°C° 0 mm 2 m/S 739 mmHg 90%
    22:00 +10°C° 0 mm 2 m/S 740 mmHg 92%
    23:00 +10°C° 0 mm 2 m/S 740 mmHg 93%

    übermorgen, 5 Juni, Freitag

    Zeit Temperatur Niederschläge Wind Luftdruck Luftfeuchtigkeit
    00:00 +9°C° 0 mm 2 m/S 740 mmHg 94%
    01:00 +9°C° 0 mm 2 m/S 740 mmHg 94%
    02:00 +10°C° 0 mm 1 m/S 739 mmHg 95%
    03:00 +10°C° 0 mm 1 m/S 739 mmHg 95%
    04:00 +9°C° 0 mm 2 m/S 739 mmHg 96%
    05:00 +9°C° 0 mm 2 m/S 739 mmHg 96%
    06:00 +12°C° 0 mm 2 m/S 739 mmHg 92%
    07:00 +14°C° 0 mm 2 m/S 739 mmHg 88%
    08:00 +16°C° 0 mm 2 m/S 740 mmHg 85%
    09:00 +17°C° 0.1 mm 3 m/S 740 mmHg 82%
    10:00 +18°C° 0.1 mm 4 m/S 740 mmHg 80%
    11:00 +20°C° 0.1 mm 4 m/S 740 mmHg 78%
    12:00 +19°C° 0.3 mm 4 m/S 740 mmHg 81%
    13:00 +19°C° 0.3 mm 4 m/S 740 mmHg 84%
    14:00 +18°C° 0.3 mm 4 m/S 740 mmHg 86%
    15:00 +19°C° 0 mm 4 m/S 740 mmHg 82%
    16:00 +20°C° 0 mm 4 m/S 740 mmHg 77%
    17:00 +21°C° 0 mm 4 m/S 740 mmHg 72%
    18:00 +20°C° 0.3 mm 4 m/S 740 mmHg 78%
    19:00 +19°C° 0.3 mm 4 m/S 741 mmHg 84%
    20:00 +18°C° 0.3 mm 3 m/S 741 mmHg 89%
    21:00 +18°C° 0.1 mm 3 m/S 741 mmHg 91%
    22:00 +17°C° 0.1 mm 3 m/S 741 mmHg 93%
    23:00 +16°C° 0.1 mm 3 m/S 741 mmHg 95%

    6 Juni, Samstag

    Zeit Temperatur Niederschläge Wind Luftdruck Luftfeuchtigkeit
    00:00 +16°C° 0 mm 3 m/S 741 mmHg 95%
    01:00 +16°C° 0 mm 3 m/S 741 mmHg 95%
    02:00 +14°C° 0 mm 3 m/S 741 mmHg 95%
    03:00 +14°C° 0 mm 3 m/S 741 mmHg 94%
    04:00 +16°C° 0 mm 3 m/S 741 mmHg 94%
    05:00 +16°C° 0 mm 3 m/S 742 mmHg 94%
    06:00 +17°C° 0 mm 3 m/S 742 mmHg 91%
    07:00 +17°C° 0 mm 3 m/S 742 mmHg 89%
    08:00 +18°C° 0 mm 3 m/S 743 mmHg 87%
    09:00 +18°C° 0.2 mm 3 m/S 743 mmHg 89%
    10:00 +18°C° 0.2 mm 3 m/S 744 mmHg 91%
    11:00 +17°C° 0.2 mm 2 m/S 744 mmHg 93%
    12:00 +19°C° 0 mm 2 m/S 745 mmHg 88%
    13:00 +20°C° 0 mm 3 m/S 745 mmHg 83%
    14:00 +21°C° 0 mm 3 m/S 745 mmHg 78%
    15:00 +21°C° 0.5 mm 3 m/S 745 mmHg 79%
    16:00 +21°C° 0.5 mm 2 m/S 745 mmHg 80%
    17:00 +21°C° 0.5 mm 2 m/S 746 mmHg 81%
    18:00 +20°C° 0.1 mm 2 m/S 746 mmHg 84%
    19:00 +20°C° 0.1 mm 1 m/S 746 mmHg 87%
    20:00 +19°C° 0.1 mm 1 m/S 747 mmHg 90%
    21:00 +16°C° 0 mm 0 m/S 747 mmHg 90%
    22:00 +16°C° 0 mm 0 m/S 747 mmHg 90%
    23:00 +15°C° 0 mm 0 m/S 748 mmHg 90%

    7 Juni, Sonntag

    Zeit Temperatur Niederschläge Wind Luftdruck Luftfeuchtigkeit
    00:00 +16°C° 0 mm 1 m/S 748 mmHg 90%
    01:00 +16°C° 0 mm 1 m/S 748 mmHg 90%
    02:00 +16°C° 0 mm 1 m/S 748 mmHg 90%
    03:00 +16°C° 0.1 mm 1 m/S 748 mmHg 92%
    04:00 +16°C° 0.1 mm 2 m/S 749 mmHg 93%
    05:00 +16°C° 0.1 mm 2 m/S 749 mmHg 94%
    06:00 +17°C° 0 mm 2 m/S 749 mmHg 91%
    07:00 +18°C° 0 mm 3 m/S 749 mmHg 88%
    08:00 +20°C° 0 mm 3 m/S 749 mmHg 85%
    09:00 +21°C° 0.1 mm 4 m/S 749 mmHg 79%
    10:00 +23°C° 0.1 mm 4 m/S 749 mmHg 73%
    11:00 +26°C° 0.1 mm 5 m/S 749 mmHg 67%
    12:00 +27°C° 0.3 mm 5 m/S 748 mmHg 64%
    13:00 +27°C° 0.3 mm 5 m/S 748 mmHg 60%
    14:00 +28°C° 0.3 mm 5 m/S 748 mmHg 56%
    15:00 +28°C° 0.2 mm 5 m/S 748 mmHg 58%
    16:00 +27°C° 0.2 mm 4 m/S 747 mmHg 61%
    17:00 +27°C° 0.2 mm 4 m/S 747 mmHg 63%
    18:00 +25°C° 0 mm 3 m/S 747 mmHg 69%
    19:00 +22°C° 0 mm 3 m/S 747 mmHg 74%
    20:00 +21°C° 0 mm 3 m/S 747 mmHg 80%
    21:00 +20°C° 0 mm 2 m/S 748 mmHg 83%
    22:00 +19°C° 0 mm 2 m/S 748 mmHg 85%
    23:00 +18°C° 0 mm 2 m/S 748 mmHg 88%

    8 Juni, Montag

    Zeit Temperatur Niederschläge Wind Luftdruck Luftfeuchtigkeit
    00:00 +18°C° 0 mm 2 m/S 748 mmHg 88%
    01:00 +18°C° 0 mm 2 m/S 748 mmHg 89%
    02:00 +18°C° 0 mm 3 m/S 748 mmHg 89%
    03:00 +17°C° 0 mm 2 m/S 748 mmHg 91%
    04:00 +17°C° 0 mm 2 m/S 747 mmHg 92%
    05:00 +17°C° 0 mm 2 m/S 747 mmHg 94%
    06:00 +19°C° 0.1 mm 3 m/S 747 mmHg 89%
    07:00 +20°C° 0.1 mm 3 m/S 747 mmHg 85%
    08:00 +22°C° 0.1 mm 3 m/S 747 mmHg 80%
    09:00 +25°C° 0.4 mm 4 m/S 747 mmHg 74%
    10:00 +26°C° 0.4 mm 4 m/S 747 mmHg 68%
    11:00 +27°C° 0.4 mm 4 m/S 746 mmHg 63%
    12:00 +27°C° 0.7 mm 4 m/S 746 mmHg 65%
    13:00 +27°C° 0.7 mm 4 m/S 746 mmHg 67%
    14:00 +27°C° 0.7 mm 4 m/S 746 mmHg 69%
    15:00 +26°C° 1.1 mm 4 m/S 746 mmHg 73%
    16:00 +26°C° 1.1 mm 3 m/S 745 mmHg 76%
    17:00 +25°C° 1.1 mm 3 m/S 745 mmHg 80%
    18:00 +24°C° 0.3 mm 3 m/S 745 mmHg 84%
    19:00 +22°C° 0.3 mm 3 m/S 745 mmHg 87%
    20:00 +21°C° 0.3 mm 2 m/S 746 mmHg 91%
    21:00 +20°C° 0.2 mm 2 m/S 746 mmHg 92%
    22:00 +19°C° 0.2 mm 2 m/S 746 mmHg 94%
    23:00 +19°C° 0.2 mm 2 m/S 746 mmHg 95%
    Mehr zeigen